When you browse on this site, cookies collect data to enhance your experience and personalize the content and advertising you see.
Visit our Privacy Policy to learn more. By continuing to use the site, you agree to this use of cookies and data.
  • en France
  • Liste des pays
  • À 7 jours
  • Température de l'eau
  • Carte satellitaire
  • Carte météo
  • Widgets météo
  • user-avatar
    Se connecter

    Météo par heure à Marseille

    Ce jour, 23 Janvier, Mercredi

    Heure Température Précipitation Vent Pression Humidité
    00:00 +3°C° 0 mm 5 m/s 746 mmHg 48%
    01:00 +3°C° 0 mm 5 m/s 745 mmHg 50%
    02:00 +3°C° 0 mm 5 m/s 745 mmHg 53%
    03:00 +2°C° 0 mm 5 m/s 744 mmHg 55%
    04:00 +3°C° 0 mm 4 m/s 744 mmHg 58%
    05:00 +3°C° 0 mm 4 m/s 744 mmHg 60%
    06:00 +3°C° 0 mm 4 m/s 743 mmHg 63%
    07:00 +3°C° 0.2 mm 3 m/s 743 mmHg 62%
    08:00 +3°C° 0.2 mm 3 m/s 742 mmHg 62%
    09:00 +5°C° 0.2 mm 2 m/s 742 mmHg 62%
    10:00 +5°C° 0.1 mm 3 m/s 741 mmHg 61%
    11:00 +5°C° 0.1 mm 3 m/s 741 mmHg 61%
    12:00 +6°C° 0.1 mm 4 m/s 741 mmHg 61%
    13:00 +6°C° 0.1 mm 5 m/s 740 mmHg 59%
    14:00 +6°C° 0.1 mm 5 m/s 740 mmHg 58%
    15:00 +7°C° 0.1 mm 6 m/s 740 mmHg 56%
    16:00 +5°C° 0 mm 8 m/s 740 mmHg 56%
    17:00 +3°C° 0 mm 9 m/s 740 mmHg 55%
    18:00 +3°C° 0 mm 11 m/s 740 mmHg 54%
    19:00 +2°C° 0 mm 11 m/s 740 mmHg 55%
    20:00 +2°C° 0 mm 11 m/s 740 mmHg 56%
    21:00 +2°C° 0 mm 12 m/s 740 mmHg 57%
    22:00 +2°C° 0 mm 11 m/s 740 mmHg 56%
    23:00 +2°C° 0 mm 10 m/s 741 mmHg 56%

    Demain, 24 Janvier, Jeudi

    Heure Température Précipitation Vent Pression Humidité
    00:00 +2°C° 0 mm 10 m/s 741 mmHg 56%
    01:00 +2°C° 0 mm 9 m/s 741 mmHg 55%
    02:00 +1°C° 0 mm 9 m/s 741 mmHg 55%
    03:00 +1°C° 0 mm 8 m/s 742 mmHg 55%
    04:00 +1°C° 0 mm 8 m/s 742 mmHg 54%
    05:00 +2°C° 0 mm 7 m/s 742 mmHg 53%
    06:00 +2°C° 0 mm 7 m/s 743 mmHg 52%
    07:00 +2°C° 0 mm 7 m/s 743 mmHg 51%
    08:00 +3°C° 0 mm 7 m/s 744 mmHg 49%
    09:00 +3°C° 0 mm 7 m/s 745 mmHg 48%
    10:00 +4°C° 0 mm 7 m/s 745 mmHg 45%
    11:00 +5°C° 0 mm 8 m/s 745 mmHg 42%
    12:00 +6°C° 0 mm 9 m/s 745 mmHg 40%
    13:00 +6°C° 0 mm 9 m/s 746 mmHg 40%
    14:00 +6°C° 0 mm 9 m/s 746 mmHg 41%
    15:00 +6°C° 0 mm 9 m/s 746 mmHg 42%
    16:00 +5°C° 0 mm 9 m/s 747 mmHg 45%
    17:00 +3°C° 0 mm 9 m/s 748 mmHg 48%
    18:00 +2°C° 0 mm 9 m/s 748 mmHg 51%
    19:00 +1°C° 0 mm 9 m/s 749 mmHg 52%
    20:00 +1°C° 0 mm 9 m/s 749 mmHg 53%
    21:00 0°C° 0 mm 9 m/s 750 mmHg 54%
    22:00 0°C° 0 mm 10 m/s 750 mmHg 54%
    23:00 -2°C° 0 mm 10 m/s 750 mmHg 55%

    Après-demain, 25 Janvier, Vendredi

    Heure Température Précipitation Vent Pression Humidité
    00:00 -2°C° 0 mm 11 m/s 750 mmHg 55%
    01:00 -2°C° 0 mm 11 m/s 750 mmHg 54%
    02:00 -2°C° 0 mm 11 m/s 750 mmHg 53%
    03:00 -2°C° 0 mm 11 m/s 750 mmHg 52%
    04:00 -2°C° 0 mm 11 m/s 750 mmHg 51%
    05:00 -2°C° 0 mm 11 m/s 750 mmHg 49%
    06:00 -2°C° 0 mm 12 m/s 750 mmHg 48%
    07:00 -1°C° 0 mm 11 m/s 750 mmHg 44%
    08:00 +1°C° 0 mm 11 m/s 750 mmHg 40%
    09:00 +2°C° 0 mm 11 m/s 750 mmHg 36%
    10:00 +3°C° 0 mm 11 m/s 750 mmHg 34%
    11:00 +4°C° 0 mm 12 m/s 750 mmHg 32%
    12:00 +7°C° 0 mm 12 m/s 750 mmHg 30%
    13:00 +7°C° 0 mm 12 m/s 750 mmHg 31%
    14:00 +7°C° 0 mm 11 m/s 750 mmHg 32%
    15:00 +6°C° 0 mm 11 m/s 750 mmHg 33%
    16:00 +4°C° 0 mm 11 m/s 751 mmHg 36%
    17:00 +3°C° 0 mm 10 m/s 752 mmHg 40%
    18:00 +2°C° 0 mm 10 m/s 752 mmHg 44%
    19:00 +1°C° 0 mm 9 m/s 753 mmHg 45%
    20:00 +1°C° 0 mm 8 m/s 753 mmHg 47%
    21:00 0°C° 0 mm 7 m/s 754 mmHg 48%
    22:00 0°C° 0 mm 7 m/s 754 mmHg 50%
    23:00 0°C° 0 mm 7 m/s 755 mmHg 51%

    26 Janvier, Samedi

    Heure Température Précipitation Vent Pression Humidité
    00:00 0°C° 0 mm 7 m/s 755 mmHg 52%
    01:00 -1°C° 0 mm 7 m/s 755 mmHg 52%
    02:00 -1°C° 0 mm 7 m/s 755 mmHg 53%
    03:00 -1°C° 0 mm 7 m/s 755 mmHg 54%
    04:00 -1°C° 0 mm 7 m/s 755 mmHg 52%
    05:00 -1°C° 0 mm 7 m/s 755 mmHg 51%
    06:00 -2°C° 0 mm 8 m/s 756 mmHg 50%
    07:00 -1°C° 0 mm 7 m/s 756 mmHg 46%
    08:00 0°C° 0 mm 7 m/s 756 mmHg 42%
    09:00 0°C° 0 mm 7 m/s 756 mmHg 38%
    10:00 +3°C° 0 mm 6 m/s 756 mmHg 34%
    11:00 +4°C° 0 mm 6 m/s 756 mmHg 29%
    12:00 +7°C° 0 mm 6 m/s 756 mmHg 25%
    13:00 +7°C° 0 mm 6 m/s 755 mmHg 28%
    14:00 +8°C° 0 mm 7 m/s 755 mmHg 30%
    15:00 +7°C° 0 mm 8 m/s 754 mmHg 33%
    16:00 +7°C° 0 mm 8 m/s 754 mmHg 40%
    17:00 +6°C° 0 mm 8 m/s 754 mmHg 46%
    18:00 +6°C° 0 mm 9 m/s 754 mmHg 53%
    19:00 +6°C° 0 mm 9 m/s 754 mmHg 56%
    20:00 +6°C° 0 mm 9 m/s 754 mmHg 60%
    21:00 +5°C° 0 mm 9 m/s 754 mmHg 63%
    22:00 +5°C° 0 mm 9 m/s 753 mmHg 65%
    23:00 +5°C° 0 mm 9 m/s 753 mmHg 66%

    27 Janvier, Dimanche

    Heure Température Précipitation Vent Pression Humidité
    00:00 +5°C° 0 mm 9 m/s 752 mmHg 68%
    01:00 +5°C° 0 mm 9 m/s 752 mmHg 69%
    02:00 +5°C° 0 mm 8 m/s 751 mmHg 71%
    03:00 +5°C° 0 mm 8 m/s 750 mmHg 72%
    04:00 +5°C° 0 mm 8 m/s 750 mmHg 75%
    05:00 +4°C° 0 mm 7 m/s 749 mmHg 77%
    06:00 +4°C° 0 mm 7 m/s 749 mmHg 79%
    07:00 +5°C° 0 mm 8 m/s 749 mmHg 75%
    08:00 +5°C° 0 mm 9 m/s 749 mmHg 71%
    09:00 +6°C° 0 mm 10 m/s 749 mmHg 67%
    10:00 +6°C° 0 mm 11 m/s 749 mmHg 58%
    11:00 +5°C° 0 mm 13 m/s 749 mmHg 48%
    12:00 +5°C° 0 mm 14 m/s 749 mmHg 38%
    13:00 +5°C° 0 mm 15 m/s 749 mmHg 37%
    14:00 +5°C° 0 mm 15 m/s 748 mmHg 36%
    15:00 +4°C° 0 mm 15 m/s 748 mmHg 36%
    16:00 +2°C° 0 mm 15 m/s 748 mmHg 38%
    17:00 +1°C° 0 mm 15 m/s 749 mmHg 40%
    18:00 +1°C° 0 mm 16 m/s 749 mmHg 42%
    19:00 0°C° 0 mm 15 m/s 749 mmHg 44%
    20:00 0°C° 0 mm 15 m/s 749 mmHg 46%
    21:00 0°C° 0 mm 14 m/s 749 mmHg 48%
    22:00 0°C° 0 mm 14 m/s 749 mmHg 50%
    23:00 0°C° 0 mm 14 m/s 749 mmHg 52%

    28 Janvier, Lundi

    Heure Température Précipitation Vent Pression Humidité
    00:00 0°C° 0 mm 13 m/s 749 mmHg 54%
    01:00 0°C° 0 mm 14 m/s 748 mmHg 54%
    02:00 0°C° 0 mm 14 m/s 748 mmHg 55%
    03:00 0°C° 0 mm 14 m/s 748 mmHg 55%
    04:00 0°C° 0 mm 14 m/s 747 mmHg 54%
    05:00 0°C° 0 mm 14 m/s 747 mmHg 53%
    06:00 0°C° 0 mm 14 m/s 747 mmHg 52%
    07:00 +1°C° 0 mm 15 m/s 747 mmHg 50%
    08:00 +1°C° 0 mm 15 m/s 747 mmHg 47%
    09:00 +2°C° 0 mm 15 m/s 747 mmHg 45%
    10:00 +2°C° 0 mm 15 m/s 747 mmHg 42%
    11:00 +4°C° 0 mm 15 m/s 747 mmHg 39%
    12:00 +5°C° 0 mm 14 m/s 747 mmHg 37%
    13:00 +5°C° 0 mm 14 m/s 747 mmHg 38%
    14:00 +4°C° 0 mm 13 m/s 747 mmHg 39%
    15:00 +4°C° 0 mm 13 m/s 747 mmHg 40%
    16:00 +4°C° 0 mm 13 m/s 747 mmHg 43%
    17:00 +3°C° 0 mm 14 m/s 747 mmHg 45%
    18:00 +1°C° 0 mm 14 m/s 748 mmHg 47%
    19:00 +1°C° 0 mm 13 m/s 748 mmHg 47%
    20:00 +1°C° 0 mm 13 m/s 749 mmHg 48%
    21:00 0°C° 0 mm 13 m/s 749 mmHg 48%
    22:00 0°C° 0 mm 12 m/s 749 mmHg 49%
    23:00 +1°C° 0 mm 11 m/s 750 mmHg 49%
    Voir plus